logo
Rechercher aéroport 
image banner adimage banner adimage banner ad
image banner ad

16CA - Police Pistol Range

Situé à San Francisco, United States

ICAO - 16CA, IATA -

Données fournies par Airmate  

Information générale

Coordonnées: N37°43'12" W122°29'57"
Élévation : 24 feet MSL.
Variation magnétique : 16° East
Voir autres Aéroports à California

Données opérationnelles

Special qualification required
Heure actuelle UTC:
Heure actuelle locale:
Météo à : KSFO - San Francisco Intl ( 16 km )
METAR: KSFO 011556Z 00000KT 10SM FEW008 BKN010 BKN012 14/12 A2986 RMK AO2 SLP111 T01440122
TAF: KSFO 011459Z 0115/0218 29005KT P6SM BKN010 FM011700 29010KT P6SM SCT012 FM012100 28012G22KT P6SM SKC FM020400 28012KT P6SM SCT009 FM021000 28010KT P6SM OVC009 FM021700 VRB03KT P6SM SKC
Voir NOTAMs / SUP AIP / TFR affectant cet aéroport [VIEW]
Fréquences de communication: [VIEW]

Pistes:

Coordonnées de l'aéroport

Adresse: San Francisco United States

Vue satellite de 16CA